Regional Weather Roundup
Issued by NWS

Home | Current Version | Previous Version | Text Only | Print | Product List | Glossary Off
Versions: 1 2 3 4 5 6 7 8 9 10 11 12 13 14 15 16 17 18 19 20 21 22 23 24 25 26 27

000
ASUS45 KCYS 141210
RWRWY

WYOMING REGIONAL WEATHER ROUNDUP
NATIONAL WEATHER SERVICE CHEYENNE WY
500 AM MST THU DEC 14 2017

NOTE:  "FAIR" INDICATES FEW OR NO CLOUDS BELOW 12,000 FEET
WITH NO SIGNIFICANT WEATHER AND/OR OBSTRUCTIONS TO VISIBILITY.

WYZ001-141300-
YELLOWSTONE NATIONAL PARK

CITY           SKY/WX    TMP DP  RH WIND       PRES   REMARKS
LK YELLOWSTONE   N/A      4   0  83 NW3       30.35S
6HR MIN TEMP:   4; 6HR MAX TEMP:  17;

W YELLOWSTONE  NOT AVBL

$$
WYZ002>013-054>058-071-098>099-141300-
NORTHERN WYOMING

CITY           SKY/WX    TMP DP  RH WIND       PRES   REMARKS
JACKSON        FAIR      11   8  88 VRB3        N/A
CODY           FAIR      22  19  89 SW6       30.29R WCI  14
GREYBULL       FAIR      33  22  63 N6        30.26S WCI  28
6HR MIN TEMP:  28; 6HR MAX TEMP:  34;

WORLAND        FAIR      25  21  85 CALM      30.27S
6HR MIN TEMP:  24; 6HR MAX TEMP:  33;

SHERIDAN       CLOUDY    35  23  61 NW20G35   30.25R WCI  24
6HR MIN TEMP:  35; 6HR MAX TEMP:  40;

BUFFALO        MOCLDY    35  18  49 NW32G48   30.18R WCI  21
6HR MIN TEMP:  34; 6HR MAX TEMP:  40; 6HR PCP: TRACE;

GILLETTE       CLOUDY    33  22  63 NW24G33   30.17R WCI  20
6HR MIN TEMP:  32; 6HR MAX TEMP:  36;

HULETT         CLOUDY    32  25  74 MISG      30.16R
NEWCASTLE      FAIR      32  23  69 NW28G37   30.11R WCI  18

$$
WYZ014>020-022>026-101>103-141300-
CENTRAL WYOMING

CITY           SKY/WX    TMP DP  RH WIND       PRES   REMARKS
BIG PINEY      FOG       12  10  92 S3        30.28R VSB 1/4
6HR MIN TEMP:   8; 6HR MAX TEMP:  26;

PINEDALE       FOG       10  10 100 SE5       30.27S VSB 1/4 WCI   2
DUBOIS         FAIR      12   9  85 CALM      30.24S
LANDER         CLOUDY    24  20  84 S3        30.26S
6HR MIN TEMP:  22; 6HR MAX TEMP:  30;

RIVERTON       FAIR      22  20  92 NW9       30.27S WCI  12
6HR MIN TEMP:  19; 6HR MAX TEMP:  28;

CASPER         CLOUDY    28  23  81 W13       30.21R WCI  17
6HR MIN TEMP:  22; 6HR MAX TEMP:  29; 6HR PCP:  0.01;

DOUGLAS        CLOUDY    31  27  85 NW20      30.17S WCI  19
6HR MIN TEMP:  30; 6HR MAX TEMP:  32;


$$
WYZ021-027>030-104>119-141300-
SOUTHERN WYOMING

CITY           SKY/WX    TMP DP  RH WIND       PRES   REMARKS
EVANSTON       CLOUDY    24  21  88 N10       30.29R WCI  14
6HR MIN TEMP:  23; 6HR MAX TEMP:  24;

FORT BRIDGER   CLOUDY    27  27 100 W5        30.31R WCI  21
ROCK SPRINGS   FAIR      18  15  88 W6        30.28R WCI  10
6HR MIN TEMP:  17; 6HR MAX TEMP:  26;

DIXON          PTSUNNY   28  21  74 NE9       30.24S WCI  19
RAWLINS        FAIR      22  18  85 N12       30.22R WCI  10
6HR MIN TEMP:  22; 6HR MAX TEMP:  27;

SARATOGA       CLOUDY    25  25 100 NW7       30.21S WCI  17
LARAMIE        CLOUDY    22  20  92 NW9       30.14S WCI  12
6HR MIN TEMP:  18; 6HR MAX TEMP:  25; 6HR PCP: TRACE;

CHEYENNE       FAIR      26  22  84 NW12      30.14S WCI  16
6HR MIN TEMP:  25; 6HR MAX TEMP:  28; 6HR PCP: TRACE;

TORRINGTON     CLOUDY    34  24  67 NW10      30.14S WCI  26
6HR MIN TEMP:  34; 6HR MAX TEMP:  37;

PINE BLUFFS    FAIR      28  23  80 NW8       30.15S WCI  20

$$




USA.gov is the U.S. government's official web portal to all federal, state and local government web resources and services.